Powrót do katalogu

SPACEWAY 1

AktywnyŁącznośćGEO
NORAD 28644·PAYLOAD·🇺🇸 United States

Wystrzelony Apr 26, 2005 z Sea Launch Platform

Loading…

TLE

ŚwieżeSource: Space-Track

Epoka: Sep 14, 2026, 13:23 UTC

1 28644U 05015A   26257.55785102 -.00000030  00000-0  00000-0 0  9994
2 28644   6.9237  69.6511 0006002 138.6386 204.3519  0.98490440 47052

Śledź SPACEWAY 1 w czasie rzeczywistym z AllMySat

Download on the App Store